Charlottesville, VA

3:47 AM EST on January 19, 2017 (GMT -0500)
Charlottesville-Albemarle

Weather History for KCHO - November, 2014

Change the Weather History Date:

Wednesday, November 5, 2014

  Actual Average Record
Temperature  
Mean Temperature 61 °F 50 °F  
Max Temperature 70 °F 62 °F 83 °F (1974)
Min Temperature 51 °F 39 °F 20 °F (1991)
Degree Days  
Heating Degree Days 4 15  
Month to date heating degree days 62 71  
Since 1 July heating degree days 293 420  
Cooling Degree Days 0 0  
Month to date cooling degree days 0 0  
Year to date cooling degree days 1096 1034  
Growing Degree Days 11 (Base 50)    
Moisture  
Dew Point 39 °F    
Average Humidity 47    
Maximum Humidity 67    
Minimum Humidity 26    
Precipitation  
Precipitation T in 0.15 in 1.13 in (2003)
Month to date precipitation T 0.67  
Year to date precipitation 33.09 36.40  
Sea Level Pressure  
Sea Level Pressure 30.14 in    
Wind  
Wind Speed 5 mph (South)    
Max Wind Speed 14 mph    
Max Gust Speed 18 mph    
Visibility 10 miles    
Events Rain    
T = Trace of Precipitation, MM = Missing Value Source: NWS Daily Summary

Daily Weather History Graph

Daily Weather History Graph

Search for Another Location

Airport or City:

Trip Planner

Search our weather history database for the weather conditions in past years. The results will help you decide how hot, cold, wet, or windy it might be!

Date:

Astronomy

Nov. 05, 2014 Rise Set
Actual Time 6:43 AM EST 5:10 PM EST
Civil Twilight 6:16 AM EST 5:37 PM EST
Nautical Twilight 5:45 AM EST 6:09 PM EST
Astronomical Twilight 5:14 AM EST 6:40 PM EST
Moon 4:33 PM EST (11/5) 5:08 AM EST (11/5)
Length of Visible Light 11h 21m
Length of Day
10h 26m
Waxing Gibbous, 98% of the Moon is Illuminated
Nov 5
Waxing Gibbous
Nov 6
Full
Nov 14
Last Quarter
Nov 22
New
Nov 29
First Quarter

Hourly Weather History & Observations

Time (EST) Temp. Dew Point Humidity Pressure Visibility Wind Dir Wind Speed Gust Speed Precip Events Conditions
12:53 AM 57.9 °F 33.1 °F 39% 30.09 in 10.0 mi South 10.4 mph - N/A   Clear
1:53 AM 57.0 °F 33.1 °F 40% 30.10 in 10.0 mi South 13.8 mph - N/A   Clear
2:53 AM 55.0 °F 34.0 °F 45% 30.10 in 10.0 mi South 6.9 mph - N/A   Clear
3:53 AM 54.0 °F 34.0 °F 47% 30.11 in 10.0 mi South 9.2 mph - N/A   Clear
4:53 AM 54.0 °F 35.1 °F 49% 30.12 in 10.0 mi South 8.1 mph - N/A   Clear
5:53 AM 54.0 °F 35.1 °F 49% 30.14 in 10.0 mi SW 3.5 mph - N/A   Clear
6:53 AM 52.0 °F 37.0 °F 57% 30.15 in 10.0 mi Calm Calm - N/A   Clear
7:53 AM 53.1 °F 39.0 °F 59% 30.19 in 10.0 mi SW 3.5 mph - N/A   Clear
8:53 AM 55.9 °F 39.0 °F 53% 30.18 in 10.0 mi South 4.6 mph - N/A   Clear
9:53 AM 63.0 °F 37.9 °F 40% 30.19 in 10.0 mi Calm Calm - N/A   Clear
10:53 AM 68.0 °F 37.9 °F 33% 30.18 in 10.0 mi SSW 6.9 mph - N/A   Clear
11:53 AM 70.0 °F 33.1 °F 26% 30.17 in 10.0 mi Variable 3.5 mph - N/A   Scattered Clouds
12:53 PM 68.0 °F 37.9 °F 33% 30.16 in 10.0 mi SSE 5.8 mph - N/A   Overcast
1:53 PM 68.0 °F 37.9 °F 33% 30.15 in 10.0 mi South 6.9 mph - N/A   Scattered Clouds
2:53 PM 66.9 °F 39.0 °F 36% 30.13 in 10.0 mi South 4.6 mph - N/A   Mostly Cloudy
3:53 PM 64.9 °F 43.0 °F 45% 30.14 in 10.0 mi SSW 3.5 mph - N/A   Mostly Cloudy
4:53 PM 63.0 °F 42.1 °F 46% 30.12 in 10.0 mi SSE 4.6 mph - N/A   Mostly Cloudy
5:53 PM 60.1 °F 43.0 °F 53% 30.14 in 10.0 mi South 4.6 mph - N/A   Overcast
6:53 PM 61.0 °F 43.0 °F 52% 30.14 in 10.0 mi South 3.5 mph - 0.00 in Rain Light Rain
7:53 PM 61.0 °F 44.1 °F 54% 30.14 in 10.0 mi Calm Calm - 0.00 in   Overcast
8:53 PM 59.0 °F 45.0 °F 60% 30.14 in 10.0 mi North 4.6 mph - N/A   Overcast
9:53 PM 57.9 °F 45.0 °F 62% 30.14 in 10.0 mi NE 6.9 mph - N/A   Overcast
10:53 PM 57.9 °F 46.0 °F 65% 30.12 in 10.0 mi NNE 4.6 mph - N/A   Overcast
11:53 PM 55.9 °F 46.9 °F 72% 30.10 in 10.0 mi North 3.5 mph - N/A   Mostly Cloudy